Redmond, OR

10:28 AM PST on December 08, 2019 (GMT -0800)
Roberts Field Airport

Weather History for KRDM - August, 2019

Change the Weather History Date:

Wednesday, August 21, 2019

  Actual Average Record
Temperature  
Mean Temperature 65 °F 64 °F  
Max Temperature 78 °F 84 °F 96 °F (1961)
Min Temperature 51 °F 44 °F 34 °F (1985)
Degree Days  
Heating Degree Days 0 3  
Month to date heating degree days 8 44  
Since 1 June heating degree days 190 330  
Since 1 July heating degree days 41 113  
Cooling Degree Days 0 2  
Month to date cooling degree days 109 65  
Year to date cooling degree days 215 191  
Since 1 June cooling degree days 215 186  
Growing Degree Days 14 (Base 50)    
Moisture  
Dew Point 54 °F    
Average Humidity 63    
Maximum Humidity 90    
Minimum Humidity 36    
Precipitation  
Precipitation T in 0.02 in 0.39 in (1965)
Month to date precipitation T 0.34  
Year to date precipitation 7.46 5.57  
Sea Level Pressure  
Sea Level Pressure 30.01 in    
Wind  
Wind Speed 3 mph (South)    
Max Wind Speed 14 mph    
Max Gust Speed 17 mph    
Visibility 9 miles    
Events Rain    
T = Trace of Precipitation, MM = Missing Value Source: NWS Daily Summary

Daily Weather History Graph

Daily Weather History Graph

Search for Another Location

Airport or City:

Astronomy

Aug. 21, 2019 Rise Set
Actual Time 6:14 AM PDT 7:59 PM PDT
Civil Twilight 5:43 AM PDT 8:30 PM PDT
Nautical Twilight 5:06 AM PDT 9:08 PM PDT
Astronomical Twilight 4:25 AM PDT 9:48 PM PDT
Moon 11:06 PM PDT (8/21) 12:08 PM PDT (8/21)
Length of Visible Light 14h 46m
Length of Day
13h 45m
Waning Gibbous, 68% of the Moon is Illuminated
Aug 21
Waning Gibbous
Aug 23
Last Quarter
Aug 30
New
Sep 5
First Quarter
Sep 13
Full

Hourly Weather History & Observations

Time (PDT) Temp. Dew Point Humidity Pressure Visibility Wind Dir Wind Speed Gust Speed Precip Events Conditions
12:56 AM 61.0 °F 48.9 °F 64% 29.98 in 10.0 mi SSE 4.6 mph - N/A   Clear
1:56 AM 61.0 °F 50.0 °F 67% 29.96 in 10.0 mi Calm Calm - N/A   Clear
2:56 AM 59.0 °F 48.9 °F 69% 29.96 in 10.0 mi Calm Calm - N/A   Clear
3:56 AM 54.0 °F 48.0 °F 80% 29.97 in 10.0 mi SSW 3.5 mph - N/A   Clear
4:56 AM 53.1 °F 46.9 °F 80% 29.98 in 10.0 mi SSE 3.5 mph - N/A   Clear
5:56 AM 52.0 °F 46.9 °F 83% 29.99 in 10.0 mi SSE 6.9 mph - N/A   Clear
6:56 AM 55.9 °F 48.9 °F 77% 30.00 in 10.0 mi Calm Calm - N/A   Clear
7:56 AM 62.1 °F 51.1 °F 67% 30.01 in 10.0 mi Calm Calm - N/A   Clear
8:56 AM 66.9 °F 51.1 °F 57% 29.99 in 10.0 mi Calm Calm - N/A   Clear
9:56 AM 72.0 °F 51.1 °F 48% 29.98 in 10.0 mi Calm Calm - N/A   Clear
10:56 AM 75.9 °F 50.0 °F 40% 29.96 in 10.0 mi Calm Calm - N/A   Overcast
11:56 AM 77.0 °F 48.0 °F 36% 29.96 in 10.0 mi NNE 5.8 mph - N/A   Overcast
12:56 PM 75.9 °F 48.0 °F 37% 29.96 in 10.0 mi NW 4.6 mph - N/A   Overcast
1:07 PM 75.0 °F 50.0 °F 41% 30.03 in 8.0 mi WNW 13.8 mph - 0.00 in Rain Light Rain
1:56 PM 64.0 °F 55.9 °F 75% 30.01 in 4.0 mi WNW 9.2 mph - N/A Rain Light Rain
2:32 PM 61.0 °F 55.9 °F 83% 30.08 in 2.5 mi WNW 9.2 mph - N/A Rain Rain
2:56 PM 62.1 °F 57.0 °F 84% 30.04 in 7.0 mi SSW 4.6 mph - N/A Rain Light Rain
3:41 PM 61.0 °F 57.0 °F 87% 30.08 in 2.5 mi Calm Calm - N/A Rain Rain
3:54 PM 60.8 °F 57.2 °F 88% 30.07 in 3.0 mi SE 3.5 mph - N/A Rain Light Rain
3:56 PM 61.0 °F 57.0 °F 87% 30.04 in 4.0 mi SE 3.5 mph - N/A Rain Light Rain
4:56 PM 61.0 °F 57.0 °F 87% 30.02 in 10.0 mi ESE 6.9 mph - 0.00 in Rain Light Rain
5:48 PM 62.1 °F 57.0 °F 84% 30.05 in 10.0 mi SE 4.6 mph - 0.00 in   Mostly Cloudy
5:56 PM 62.1 °F 57.9 °F 86% 30.02 in 10.0 mi South 6.9 mph - 0.00 in   Scattered Clouds
6:08 PM 63.0 °F 59.0 °F 87% 30.04 in 10.0 mi South 6.9 mph - N/A   Mostly Cloudy
6:25 PM 63.0 °F 57.9 °F 84% 30.04 in 10.0 mi South 6.9 mph - N/A   Scattered Clouds
6:32 PM 63.0 °F 57.0 °F 81% 30.04 in 10.0 mi SSE 6.9 mph - N/A   Mostly Cloudy
6:42 PM 63.0 °F 57.0 °F 81% 30.04 in 10.0 mi SSE 4.6 mph - N/A   Mostly Cloudy
6:56 PM 62.1 °F 57.0 °F 84% 30.00 in 10.0 mi South 4.6 mph - N/A   Scattered Clouds
7:07 PM 62.1 °F 57.0 °F 84% 30.04 in 10.0 mi South 5.8 mph - N/A   Mostly Cloudy
7:46 PM 61.0 °F 55.9 °F 83% 30.04 in 10.0 mi SSE 3.5 mph - N/A   Scattered Clouds
7:56 PM 60.1 °F 55.9 °F 86% 29.99 in 10.0 mi South 3.5 mph - N/A   Partly Cloudy
8:56 PM 59.0 °F 55.9 °F 90% 30.00 in 10.0 mi Calm Calm - N/A   Mostly Cloudy
9:56 PM 57.0 °F 54.0 °F 89% 30.00 in 10.0 mi SE 3.5 mph - N/A   Clear
10:56 PM 57.0 °F 54.0 °F 89% 29.99 in 6.0 mi Calm Calm - N/A   Partly Cloudy
11:56 PM 57.0 °F 54.0 °F 89% 29.98 in 10.0 mi ESE 3.5 mph - N/A   Overcast